星链-5317 (STARLINK-5317 )

导读 | 豆包AI

STARLINK-5317是美国SpaceX公司星链(Starlink)低轨卫星互联网项目中的组网卫星,于北京时间2023年1月19日发射升空,归属V1.5卫星批次,搭载激光星间链路技术,运行在近地轨道。它是星链全球宽带星座扩张的一部分,承担提供全球覆盖高速低延迟互联网接入的任务,助力星链实现偏远地区网络覆盖,支撑多场景通信服务。

基本信息
目录编号:
55283
目录名称:
STARLINK-5317
国际标识:
2023-010Q
轨道中心:
EARTH
卫星名称:
星链-5317
卫星全名:
星链-5317 (STARLINK-5317 )
卫星状态:
在轨 (已飞行1151 天)
发射日期:
2023-01-19 UTC
国别 :
美国 (US)
星等 :
--
轨道信息
数据来源 国际轨道数据
星历时间: 2026-03-15T14:36:08+0800
6小时前
查看轨道信息
半长轴: 6950.174km
偏心率: 0.0003144
轨道倾角: 70.001°
近地点辐角 272.251°
升交点赤经 30.331°
平近点角 87.829°
近地点: 569.851km
远地点: 574.223km
周期: 96.107分钟
每日圈数: 14.983364
详细信息
固有亮度:
5
最大亮度:
2.5
卫星平台:
Starlink v1.5
覆盖范围:
全球
运营商:
太空探索技术公司
运营商所在国:
美国
制造商(研发单位):
太空探索技术公司
制造商所在国:
美国
使用方式:
暂无
卫星简介
星链(Starlink)计划是由太空探索技术公司(SpaceX)提出的一个巨型低轨卫星互联网星座项目,计划在2019年至2024年间在太空搭建由约1.2万颗卫星组成的“星链”网络,其中1584颗将部署在地球上空550千米处的近地轨道,并从2020年开始工作。该卫星仍在工作。
2D轨道图
3D轨道图
轨道高度分析图
轨道倾角分析图
轨道综合分析图
查看轨道综合分析图